Weather History for KBDN - April, 2013

Change the Weather History Date:

Tuesday, April 9, 2013

  Actual Average (KRDM) Record (KRDM)
Temperature  
Mean Temperature 40 °F 43 °F  
Max Temperature 57 °F 58 °F 82 °F (1985)
Min Temperature 24 °F 28 °F 12 °F (2010)
Degree Days  
Heating Degree Days 24 22  
Month to date heating degree days 201  
Since 1 July heating degree days 5652  
Cooling Degree Days 0 0  
Month to date cooling degree days 0  
Year to date cooling degree days 0  
Moisture  
Dew Point 14 °F    
Average Humidity 41    
Maximum Humidity 69    
Minimum Humidity 4    
Precipitation  
Precipitation 0.00 in 0.03 in 0.18 in (1992)
Month to date precipitation 0.20  
Year to date precipitation 2.48  
Sea Level Pressure  
Sea Level Pressure 30.26 in    
Wind  
Wind Speed 3 mph (WSW)    
Max Wind Speed 12 mph    
Max Gust Speed -    
Visibility 10 miles    
Events      
T = Trace of Precipitation, MM = Missing Value Source: NWS Daily Summary

Daily Weather History Graph

Daily Weather History Graph

Search for Another Location

Airport or City:

Trip Planner

Search our weather history database for the weather conditions in past years. The results will help you decide how hot, cold, wet, or windy it might be!

Date:

Astronomy

Apr. 09, 2013 Rise Set
Actual Time 6:31 AM PDT 7:42 PM PDT
Civil Twilight 6:01 AM PDT 8:11 PM PDT
Nautical Twilight 5:25 AM PDT 8:47 PM PDT
Astronomical Twilight 4:48 AM PDT 9:25 PM PDT
Moon 5:57 AM PDT (4/9) 7:23 PM PDT (4/9)
Length of Visible Light 14h 10m
Length of Day
13h 10m
Waning Crescent, 0% of the Moon is Illuminated
Apr 9
Waning Crescent
Apr 10
New
Apr 18
First Quarter
Apr 25
Full
May 2
Last Quarter

Hourly Weather History & Observations

Time (PDT) Temp. Windchill Dew Point Humidity Pressure Visibility Wind Dir Wind Speed Gust Speed Precip Events Conditions
12:15 AM 28.4 °F - 17.6 °F 64% 30.21 in 10.0 mi Calm Calm - N/A   Clear
12:35 AM 28.4 °F - 17.6 °F 64% 30.21 in 10.0 mi Calm Calm - N/A   Clear
12:55 AM 26.6 °F - 17.6 °F 69% 30.22 in 10.0 mi Calm Calm - N/A   Clear
1:15 AM 26.6 °F - 17.6 °F 69% 30.22 in 10.0 mi Calm Calm - N/A   Clear
1:35 AM 26.6 °F - 17.6 °F 69% 30.22 in 10.0 mi Calm Calm - N/A   Clear
1:55 AM 26.6 °F 22.6 °F 15.8 °F 64% 30.22 in 10.0 mi SSW 3.5 mph - N/A   Clear
2:15 AM 26.6 °F 21.2 °F 15.8 °F 64% 30.22 in 10.0 mi SSW 4.6 mph - N/A   Clear
2:35 AM 24.8 °F 19.1 °F 15.8 °F 69% 30.22 in 10.0 mi SSW 4.6 mph - N/A   Clear
2:55 AM 24.8 °F 20.5 °F 15.8 °F 69% 30.22 in 10.0 mi SSW 3.5 mph - N/A   Clear
3:15 AM 26.6 °F - 15.8 °F 64% 30.22 in 10.0 mi Calm Calm - N/A   Clear
3:35 AM 26.6 °F 21.2 °F 15.8 °F 64% 30.23 in 10.0 mi SSW 4.6 mph - N/A   Clear
3:55 AM 26.6 °F 22.6 °F 15.8 °F 64% 30.24 in 10.0 mi SSW 3.5 mph - N/A   Clear
4:15 AM 26.6 °F - 15.8 °F 64% 30.24 in 10.0 mi Calm Calm - N/A   Clear
4:35 AM 26.6 °F - 15.8 °F 64% 30.24 in 10.0 mi Calm Calm - N/A   Clear
4:55 AM 26.6 °F - 15.8 °F 64% 30.24 in 10.0 mi Calm Calm - N/A   Clear
5:15 AM 26.6 °F 19.1 °F 15.8 °F 64% 30.25 in 10.0 mi SW 6.9 mph - N/A   Clear
5:35 AM 26.6 °F 19.1 °F 17.6 °F 69% 30.25 in 10.0 mi SW 6.9 mph - N/A   Clear
5:55 AM 26.6 °F 21.2 °F 17.6 °F 69% 30.26 in 10.0 mi SW 4.6 mph - N/A   Clear
6:15 AM 26.6 °F 21.2 °F 17.6 °F 69% 30.27 in 10.0 mi SW 4.6 mph - N/A   Clear
6:35 AM 26.6 °F 21.2 °F 17.6 °F 69% 30.27 in 10.0 mi SW 4.6 mph - N/A   Clear
6:55 AM 26.6 °F - 17.6 °F 69% 30.27 in 10.0 mi Calm Calm - N/A   Clear
7:15 AM 28.4 °F 24.6 °F 17.6 °F 64% 30.28 in 10.0 mi SW 3.5 mph - N/A   Clear
7:35 AM 32.0 °F 27.5 °F 19.4 °F 60% 30.29 in 10.0 mi SW 4.6 mph - N/A   Clear
7:55 AM 32.0 °F 27.5 °F 19.4 °F 60% 30.29 in 10.0 mi SSW 4.6 mph - N/A   Clear
8:15 AM 35.6 °F 31.7 °F 19.4 °F 52% 30.29 in 10.0 mi SSW 4.6 mph - N/A   Clear
8:35 AM 37.4 °F 32.8 °F 19.4 °F 48% 30.29 in 10.0 mi SSW 5.8 mph - N/A   Clear
8:55 AM 39.2 °F 35.0 °F 19.4 °F 45% 30.29 in 10.0 mi South 5.8 mph - N/A   Clear
9:15 AM 41.0 °F 38.0 °F 19.4 °F 42% 30.29 in 10.0 mi South 4.6 mph - N/A   Clear
9:35 AM 41.0 °F - 19.4 °F 42% 30.28 in 10.0 mi Calm Calm - N/A   Clear
9:55 AM 42.8 °F - 19.4 °F 39% 30.28 in 10.0 mi Calm Calm - N/A   Clear
10:15 AM 44.6 °F - 17.6 °F 34% 30.29 in 10.0 mi Calm Calm - N/A   Clear
10:35 AM 44.6 °F 43.1 °F 17.6 °F 34% 30.29 in 10.0 mi SW 3.5 mph - N/A   Clear
10:55 AM 44.6 °F - 15.8 °F 31% 30.29 in 10.0 mi Calm Calm - N/A   Clear
11:15 AM 46.4 °F 44.3 °F 15.8 °F 29% 30.30 in 10.0 mi SW 4.6 mph - N/A   Partly Cloudy
11:35 AM 46.4 °F 44.3 °F 14.0 °F 27% 30.30 in 10.0 mi SW 4.6 mph - N/A   Clear
11:55 AM 48.2 °F - 14.0 °F 25% 30.29 in 10.0 mi Calm Calm - N/A   Partly Cloudy
12:15 PM 48.2 °F - 12.2 °F 24% 30.29 in 10.0 mi South 3.5 mph - N/A   Partly Cloudy
12:35 PM 50.0 °F - 6.8 °F 17% 30.28 in 10.0 mi Calm Calm - N/A   Clear
12:55 PM 50.0 °F - 6.8 °F 17% 30.27 in 10.0 mi Calm Calm - N/A   Clear
1:15 PM 51.8 °F - 10.4 °F 19% 30.27 in 10.0 mi West 4.6 mph - N/A   Partly Cloudy
1:35 PM 53.6 °F - 8.6 °F 16% 30.26 in 10.0 mi SW 4.6 mph - N/A   Clear
1:55 PM 53.6 °F - 6.8 °F 15% 30.26 in 10.0 mi North 4.6 mph - N/A   Clear
2:15 PM 53.6 °F - 5.0 °F 14% 30.26 in 10.0 mi NNW 5.8 mph - N/A   Clear
2:35 PM 53.6 °F - -7.6 °F 8% 30.25 in 10.0 mi WNW 9.2 mph - N/A   Partly Cloudy
2:55 PM 55.4 °F - -0.4 °F 10% 30.25 in 10.0 mi Calm Calm - N/A   Partly Cloudy
3:15 PM 55.4 °F - 1.4 °F 11% 30.25 in 10.0 mi North 8.1 mph - N/A   Clear
3:35 PM 55.4 °F - 6.8 °F 14% 30.24 in 10.0 mi West 6.9 mph - N/A   Clear
3:55 PM 55.4 °F - 1.4 °F 11% 30.24 in 10.0 mi WNW 10.4 mph - N/A   Partly Cloudy
4:15 PM 55.4 °F - -11.2 °F 6% 30.24 in 10.0 mi NNW 9.2 mph - N/A   Partly Cloudy
4:35 PM 57.2 °F - -20.2 °F 4% 30.24 in 10.0 mi North 8.1 mph - N/A   Clear
4:55 PM 57.2 °F - -4.0 °F 8% 30.24 in 10.0 mi NNW 6.9 mph - N/A   Clear
5:15 PM 57.2 °F - 5.0 °F 12% 30.24 in 10.0 mi NW 6.9 mph - N/A   Clear
5:35 PM 57.2 °F - 5.0 °F 12% 30.24 in 10.0 mi NW 11.5 mph - N/A   Clear
5:55 PM 57.2 °F - 5.0 °F 12% 30.24 in 10.0 mi NNW 11.5 mph - N/A   Partly Cloudy
6:15 PM 55.4 °F - 10.4 °F 17% 30.24 in 10.0 mi NW 10.4 mph - N/A   Clear
6:35 PM 53.6 °F - 15.8 °F 22% 30.25 in 10.0 mi NW 6.9 mph - N/A   Partly Cloudy
6:55 PM 53.6 °F - 15.8 °F 22% 30.24 in 10.0 mi NW 8.1 mph - N/A   Partly Cloudy
7:15 PM 51.8 °F - 17.6 °F 26% 30.24 in 10.0 mi Calm Calm - N/A   Clear
7:35 PM 50.0 °F - 19.4 °F 30% 30.24 in 10.0 mi NW 6.9 mph - N/A   Clear
7:55 PM 50.0 °F - 21.2 °F 32% 30.25 in 10.0 mi NW 6.9 mph - N/A   Clear
8:15 PM 48.2 °F - 21.2 °F 34% 30.26 in 10.0 mi NW 4.6 mph - N/A   Clear
8:35 PM 48.2 °F - 23.0 °F 37% 30.25 in 10.0 mi Calm Calm - N/A   Clear
8:55 PM 46.4 °F - 23.0 °F 40% 30.26 in 10.0 mi Calm Calm - N/A   Clear
9:15 PM 46.4 °F 43.5 °F 23.0 °F 40% 30.26 in 10.0 mi NW 5.8 mph - N/A   Clear
9:35 PM 46.4 °F 42.9 °F 23.0 °F 40% 30.27 in 10.0 mi NW 6.9 mph - N/A   Clear
9:55 PM 44.6 °F 42.2 °F 23.0 °F 43% 30.27 in 10.0 mi NW 4.6 mph - N/A   Clear
10:15 PM 44.6 °F - 23.0 °F 43% 30.28 in 10.0 mi Calm Calm - N/A   Clear
10:35 PM 42.8 °F 41.1 °F 24.8 °F 49% 30.28 in 10.0 mi SW 3.5 mph - N/A   Clear
10:55 PM 42.8 °F - 24.8 °F 49% 30.29 in 10.0 mi Calm Calm - N/A   Partly Cloudy
11:15 PM 44.6 °F - 24.8 °F 46% 30.28 in 10.0 mi Calm Calm - N/A   Mostly Cloudy
11:35 PM 44.6 °F 41.4 °F 26.6 °F 49% 30.26 in 10.0 mi SSW 5.8 mph - N/A   Scattered Clouds
11:55 PM 44.6 °F 41.4 °F 26.6 °F 49% 30.26 in 10.0 mi SSW 5.8 mph - N/A   Scattered Clouds